Starlink 34094

operational
NORAD ID: 63822 Int'l Des: 2025-092 Owner: SPXS Country: US Constellation: starlink
LEOCIRCULAR

Über Starlink 34094

Beschreibung wird geladen...

Live-Position

3D-Globus wird geladen...

Nächste Überflüge

Höhenverlauf

Altitude vs Time

uPlot chart will show altitude changes over time

Zweizeiliger Elementsatz

1 63822U 25092U 25352.16710947 .00021312 00000-0 78164-3 0 9999
2 63822 43.0037 269.7299 0001565 267.9032 92.1641 15.27584499 36231
Epoch: 18. Dez. 2025 • Age: 13 hours

Aktueller Status

Höhe 486.3 km
Geschwindigkeit 7.63 km/s
Subsatellitenpunkt 39.46°N, 12.4°W
Startdatum 4. Mai 2025
Alter 0.6 years
Typ internet

Technische Details

Klassifizierung Payload
Masse 575.00 kg
Trockenmasse 530.00 kg
Gesamtmasse 575.00 kg
Länge 0.30 m
Durchmesser 4.10 m
Spannweite 29.00 m
Form Box + pan
Hersteller SPXS
Bus-Typ Starlink V2MO
Phasenstatus In Orbit
Besitzer/Staat SPXS/US

Große Konstellationen

Loading constellations...